Home > Weather > Smara > Past weeks

Weather for the Past 2 Weeks in Smara, Western Sahara

Now
73 °F

Scattered clouds.


Feels Like: 77 °F
Forecast: N/A
Wind: 18 mph from Northeast

Location: Laayoune/Hassan Isl

Current Time: Feb 11, 2016 at 3:52:11 PM

Latest Report: Feb 11, 2016 at 3:00 PM


Visibility: N/A

Pressure: 30.21 "Hg

Humidity: 44%

Dew point: 50 °F

Location of SmaraLocation

Historic Weather in Smara — Graph

°F

Smara Temperature Yesterday

Maximum temperature yesterday: 72 °F (at 1:00 PM)
Minimum temperature yesterday: 63 °F (at 12:00 AM)
Average temperature yesterday: 66 °F

High & Low Weather Summary for the Past Weeks

 TemperatureHumidityPressure
High86 °F (Feb 6, 2:00 PM)100% (Jan 30, 5:00 AM)30.45 "Hg (Jan 30, 5:00 AM)
Low-69 °F (Feb 3, 5:00 PM)11% (Feb 6, 5:00 PM)30.09 "Hg (Feb 5, 3:00 PM)
Average66 °F61%30.29 "Hg
* Reported Jan 27 3:00 PM — Feb 11 3:00 PM, Smara, Weather by CustomWeather, © 2016

Note: Actual official high and low records may vary slightly from our data, if they occured in-between our weather recording intervals... More about our weather records

Advertising

Smara Weather History for the Previous 24 Hours

 ConditionsComfort  
Time TempWeatherWind HumidityBarometerVisibility
3:00 PM
Thu, Feb 11
73 °FScattered clouds.18 mph44%30.21 "HgN/A
2:00 PM73 °FScattered clouds.21 mph47%30.21 "HgN/A
1:00 PM73 °FScattered clouds.18 mph47%30.24 "HgN/A
12:00 PM70 °FScattered clouds.22 mph50%30.27 "HgN/A
11:00 AM70 °FPartly sunny.24 mph57%30.27 "HgN/A
10:00 AM66 °FPartly sunny.22 mph60%30.27 "HgN/A
9:00 AM64 °FPartly sunny.23 mph64%30.27 "HgN/A
8:00 AM63 °FPassing clouds.16 mph68%30.27 "Hg5 mi
7:00 AM64 °FPassing clouds.15 mph64%30.24 "Hg5 mi
6:00 AM63 °FClear.21 mph68%30.24 "Hg5 mi
5:00 AM63 °FClear.17 mph68%30.24 "Hg5 mi
4:00 AM63 °FClear.14 mph68%30.24 "Hg5 mi
3:00 AM64 °FClear.12 mph68%30.24 "Hg5 mi
2:00 AM64 °FClear.13 mph64%30.27 "Hg5 mi
1:00 AM64 °FClear.21 mph64%30.30 "Hg5 mi
12:00 AM64 °FClear.13 mph68%30.39 "Hg5 mi
11:00 PM
Wed, Feb 10
64 °FClear.18 mph68%30.30 "Hg5 mi
10:00 PM63 °FClear.17 mph73%30.27 "Hg5 mi
9:00 PM63 °FClear.12 mph68%30.27 "Hg5 mi
8:00 PM63 °FPassing clouds.12 mph73%30.27 "HgN/A
7:00 PM66 °FBroken clouds.16 mph64%30.24 "HgN/A
6:00 PM68 °FBroken clouds.16 mph56%30.24 "HgN/A
5:00 PM70 °FBroken clouds.20 mph57%30.24 "HgN/A
4:00 PM70 °FSunny.20 mph53%30.24 "Hg10 mi
3:00 PM72 °FSunny.18 mph53%30.27 "Hg10 mi
Weather by CustomWeather, © 2016

See weather overviewHow to use our weather pages